User: anonymous   Login
Location: Shades State Park
(39.9310°N, 87.0690°W)
Time: 00:38:15
(UTC-04:00)
Language:

H-2A R/B - Orbit

View from above orbital plane
View from above orbital plane
View from above satellite
View from above satellite

Ground track
Ground track

The orbit data is extracted from the following two-line orbital elements,

1 27601U 02056E   15214.80452803  .00000104  00000-0  53387-4 0  9997
2 27601 098.4518 292.3002 0072789 161.4932 306.9100 14.31623627659880
Epoch (UTC): 02 August 2015 19:18:31
Eccentricity: 0.0072789
inclination: 98.4518°
perigee height: 734 km
apogee height: 838 km
right ascension of ascending node: 292.3002°
argument of perigee: 161.4932°
revolutions per day: 14.31623627
mean anomaly at epoch: 306.9100°
orbit number at epoch: 65988

The dashed part of the orbit path shows where the satellite is in the earth's shadow,  

DLR